{"data":{"norad_id":61764,"epoch":"2026-05-25T04:22:36.901056Z","epoch_age_seconds":73482,"freshness":"FRESH","line1":"1 61764U 24199AF  26145.18237154  .00035116  00000+0  59749-3 0  9990","line2":"2 61764  97.2983  21.1453 0006575   6.2566 353.8767 15.51316295130863","mean_motion":15.51316295,"eccentricity":0.0006575,"inclination_deg":97.2983,"raan_deg":21.1453,"arg_perigee_deg":6.2566,"mean_anomaly_deg":353.8767,"bstar":0.00059749,"rev_number":13086,"period_min":92.824397232287,"perigee_km":408.4167938728,"apogee_km":417.34698371156,"semimajor_km":6791.0188887922,"source":"CELESTRAK","updated_at":"2026-05-25T13:38:23.295065Z"}}